Flag for Germany Weather past 2 weeks in Leipzig, Saxony, Germany

Now
70 °F

Passing clouds.


Feels Like: 70 °F
Forecast: 63 / 74 °F
Wind: 15 mph from Northeast

Location: Leipzig-Schkeuditz

Current Time: Jul 23, 2014 at 11:00:59 PM

Latest Report: Jul 23, 2014 at 10:20 PM


Visibility: N/A

Pressure: 30.01 "Hg

Humidity: 60%

Dew point: 55 °F

Location of LeipzigLocation

Historic Weather in Leipzig — Graph

°F

Leipzig temperature yesterday

Maximum temperature yesterday: 84 °F (at 2:20 PM)
Minimum temperature yesterday: 63 °F (at 5:20 AM)
Average temperature yesterday: 74 °F

Past Weeks' High & Low Weather Summary

 TemperatureHumidityPressure
High93 °F (Jul 20, 3:50 PM)100% (Jul 8, 9:20 PM)30.18 "Hg (Jul 8, 9:20 PM)
Low52 °F (Jul 12, 3:50 AM)22% (Jul 19, 6:50 PM)29.53 "Hg (Jul 9, 7:50 AM)
Average70 °F67%29.93 "Hg
* Reported Jul 8 9:20 PM — Jul 23 9:50 PM, Leipzig, Weather by CustomWeather, © 2014

Note: Actual official high and low records may vary slightly from our data, if they occured in-between our weather recording intervals... More about our weather records

Advertising

Leipzig weather history for previous 24 hours

 ConditionsComfort  
Time TempWeatherWind HumidityBarometerVisibility
9:50 PM
Jul 23
72 °FPartly sunny.15 mph53%30.01 "HgN/A
9:20 PM75 °FScattered clouds.14 mph44%30.01 "HgN/A
8:50 PM77 °FScattered clouds.14 mph36%29.98 "HgN/A
8:20 PM79 °FSunny.12 mph34%29.98 "Hg10 mi
7:50 PM81 °FSunny.12 mph32%29.98 "Hg10 mi
7:20 PM81 °FSunny.15 mph30%29.98 "Hg10 mi
6:50 PM82 °FSunny.14 mph26%29.98 "Hg10 mi
6:20 PM82 °FSunny.15 mph25%30.01 "Hg10 mi
5:50 PM82 °FSunny.14 mph25%30.01 "Hg10 mi
5:20 PM82 °FSunny.14 mph28%30.01 "Hg10 mi
4:50 PM82 °FSunny.15 mph26%30.01 "Hg10 mi
4:20 PM82 °FSunny.13 mph26%30.01 "Hg10 mi
3:50 PM84 °FSunny.14 mph27%30.01 "Hg10 mi
3:20 PM84 °FSunny.13 mph25%30.01 "Hg10 mi
1:20 PM82 °FSunny.12 mph35%30.07 "Hg10 mi
12:50 PM82 °FSunny.10 mph35%30.07 "Hg10 mi
12:20 PM81 °FSunny.10 mph39%30.07 "Hg10 mi
11:50 AM79 °FSunny.10 mph45%30.07 "Hg10 mi
11:20 AM79 °FPassing clouds.9 mph48%30.07 "HgN/A
10:20 AM75 °FSunny.9 mph57%30.09 "Hg10 mi
7:50 AM66 °FSunny.8 mph78%30.09 "Hg10 mi
7:20 AM64 °FSunny.7 mph83%30.07 "Hg10 mi
6:50 AM63 °FSunny.7 mph88%30.07 "Hg10 mi
6:20 AM63 °FClear.6 mph83%30.07 "Hg10 mi
5:50 AM63 °FClear.8 mph83%30.07 "Hg10 mi
5:20 AM63 °FClear.6 mph83%30.07 "Hg10 mi
4:50 AM63 °FClear.6 mph83%30.07 "Hg10 mi
4:20 AM64 °FClear.7 mph78%30.07 "Hg10 mi
3:50 AM66 °FClear.7 mph73%30.07 "Hg10 mi
3:20 AM66 °FClear.8 mph78%30.07 "Hg10 mi
2:50 AM68 °FClear.10 mph73%30.07 "Hg10 mi
2:20 AM68 °FClear.9 mph73%30.07 "Hg10 mi
1:50 AM70 °FClear.10 mph69%30.04 "Hg10 mi
Weather by CustomWeather, © 2014

See weather overviewHow to use our weather pages